{"data":{"norad_id":63751,"intl_designator":"2025-089A","name":"STARLINK-11677 [DTC]","alt_names":[],"object_type":"PAYLOAD","status":"ACTIVE","operator":null,"country":"US","launch_date":"2025-04-29","launch_site_code":"AFETR","launch_vehicle":null,"mission":null,"orbit_class":"UNKNOWN","rcs_meters":null,"size_class":null,"mass_kg":null,"dimensions":null,"purposes":["comms"],"wikipedia_slug":null,"has_3d_model":false,"image_url":null,"decayed_at":null,"tle_current":{"epoch":"2026-09-20T22:00:03.000096Z","epoch_age_seconds":113616,"freshness":"FRESH","line1":"1 63751U 25089A   26263.91670139 -.00005957  00000+0 -42982-4 0  9997","line2":"2 63751  43.0002 195.7941 0001436 267.6094 183.1143 15.70830311  5990","mean_motion":15.70830311,"eccentricity":0.0001436,"inclination_deg":43.0002,"raan_deg":195.7941,"arg_perigee_deg":267.6094,"mean_anomaly_deg":183.1143,"bstar":-4.2982e-5,"rev_number":599,"period_min":91.671263911586,"perigee_km":355.55565754546,"apogee_km":357.48985182701,"semimajor_km":6734.6597546862,"source":"CELESTRAK","updated_at":"2026-09-21T09:00:35.092354Z"}}}